Location: Chilton Park
(37.7711°N, 100.0276°W)
Time: 08:51:55
(UTC+00:00)

Cosmos 1898 Rocket - Pass Details

Date: 04 July 2022
Orbit: 753 x 783 km, 74.0° (Epoch: 14 August)

Event Time Altitude Azimuth Distance (km) Brightness Sun altitude
Rises 08:48:04 0° 334° (NNW) 3,212 7.2 -22.8°
Reaches altitude 10° 08:50:32 10° 328° (NNW) 2,283 6.3 -22.5°
Maximum altitude 08:55:23 43° 258° (WSW) 1,057 3.9 -22.0°
Enters shadow 08:55:24 43° 257° (WSW) 1,057 3.9 -22.0°
